Hourly Data Report for October 11, 2016

All times are specified in Local Standard Time (LST). Add 1 hour to adjust for Daylight Saving Time where and when it is observed.

HALL BEACH A
NUNAVUT

68°46'33.000" N
81°14'33.000" W
9.10 m
2402354
71293
YUX

Download Data

Hourly Data (October 2016)
Hourly Data Report for October 11, 2016
Temp Definition
°C
Dew Point Temp Definition
°C
Rel Hum Definition
%
Wind Dir Definition
10's deg

Wind Spd Definition
km/h
Visibility Definition
km
Stn Press Definition
kPa
Hmdx Definition


Wind Chill Definition


Weather Definition


TIME
00:00 Legend Double Dagger -15.1 -16.7 88 25 15 16.1 100.77   -23 LegendNANA
01:00 Legend Double Dagger -9.7 -10.6 93 23 13 16.1 100.77   -16 Snow
02:00 Legend Double Dagger -9.9 -10.8 93 24 13 12.9 100.76   -16 Snow
03:00 Legend Double Dagger -9.2 -10.1 93 22 15 14.5 100.74   -16 Snow
04:00 Legend Double Dagger -12.0 -13.3 90 25 17 16.1 100.74   -20 LegendNANA
05:00 Legend Double Dagger -14.7 -16.0 90 27 22 16.1 100.76   -24 LegendNANA
06:00 Legend Double Dagger -15.2 -16.5 90 31 24 16.1 100.79   -25 LegendNANA
07:00 Legend Double Dagger -17.5 -19.2 87 28 21 4.8 100.85   -28 Fog
08:00 Legend Double Dagger -17.1 -18.8 87 27 17 1.6 100.86   -26 Fog
09:00 Legend Double Dagger -15.2 -16.5 90 29 17 0.6 100.87   -24 Freezing Fog
10:00 Legend Double Dagger -11.8 -13.0 91 26 13 0.4 100.90   -18 Freezing Fog
11:00 Legend Double Dagger -13.8 -15.2 89 26 13 16.1 100.94   -21 LegendNANA
12:00 Legend Double Dagger -12.5 -13.7 91 30 21 16.1 100.95   -21 LegendNANA
13:00 Legend Double Dagger -12.8 -14.1 90 30 21 16.1 100.99   -22 LegendNANA
14:00 Legend Double Dagger -12.1 -13.4 90 29 18 16.1 101.03   -20 LegendNANA
15:00 Legend Double Dagger -8.4 -9.2 94 31 15 16.1 101.05   -15 Snow
16:00 Legend Double Dagger -8.8 -9.6 94 33 9 16.1 101.08   -13 LegendNANA
17:00 Legend Double Dagger -8.7 -9.7 92   0 16.1 101.13     LegendNANA
18:00 Legend Double Dagger -10.8 -11.9 92 33 8 16.1 101.15   -15 LegendNANA
19:00 Legend Double Dagger -10.7 -11.8 92 30 11 16.1 101.17   -16 LegendNANA
20:00 Legend Double Dagger -13.2 -14.3 92 32 18 16.1 101.16   -21 LegendNANA
21:00 Legend Double Dagger -15.2 -16.5 90 32 18 16.1 101.16   -24 LegendNANA
22:00 Legend Double Dagger -14.1 -15.4 90 32 21 16.1 101.17   -23 LegendNANA
23:00 Legend Double Dagger -16.8 -18.5 87 32 22 11.3 101.18   -27 LegendNANA

Notes on Data Quality.

Legend

  • E = Estimated
  • M = Missing
  • NA = Not Available
  • ‡ = Partner data that is not subject to review by the National Climate Archives
Date modified: